W1GK Weather Reports


time (UTC)temp
F
wind
direction
speed
knots
gust
knots
rain 1hr
in
rain 24hr
in
rain mn
in
humidity
%
barometer
mb
20260502162000 74 11 2.6 4.3 0.00 0.00 0.00 13 1018.0
20260502161001 74 24 1.7 4.3 0.00 0.00 0.00 13 1018.0
20260502152000 71 34 1.7 3.5 0.00 0.00 0.00 14 1017.7
20260502151001 70 11 1.7 4.3 0.00 0.00 0.00 14 1017.6
20260502122959 59 344 0.0 1.7 0.00 0.00 0.00 17 1016.3
20260502121958 59 344 0.9 2.6 0.00 0.00 0.00 17 1016.3
20260502121000 59 348 1.7 1.7 0.00 0.00 0.00 17 1016.2
20260502115000 59 112 0.0 1.7 0.00 0.00 0.00 17 1016.1
20260502113959 59 132 0.0 2.6 0.00 0.00 0.00 16 1016.1
20260502113001 59 96 0.0 2.6 0.00 0.00 0.00 16 1016.1
20260502112000 59 113 1.7 2.6 0.00 0.00 0.00 16 1016.1
20260502111001 59 98 0.9 1.7 0.00 0.00 0.00 16 1016.1
20260502110002 60 98 0.9 2.6 0.00 0.00 0.00 16 1016.1
20260502105000 60 102 0.9 2.6 0.00 0.00 0.00 16 1016.2
20260502103959 61 60 0.9 1.7 0.00 0.00 0.00 15 1016.1
20260502102959 61 300 0.9 1.7 0.00 0.00 0.00 16 1016.1
20260502101959 62 59 0.0 1.7 0.00 0.00 0.00 15 1016.0
20260502100959 62 58 0.9 1.7 0.00 0.00 0.00 15 1016.1
20260502090959 65 39 0.9 2.6 0.00 0.00 0.00 13 1016.1
20260502071003 69 219 0.9 1.7 0.00 0.00 0.00 12 1016.1
20260502070002 70 80 0.0 1.7 0.00 0.00 0.00 11 1015.9
20260502065002 71 5 0.0 0.9 0.00 0.00 0.00 11 1015.9
20260502064002 71 5 0.0 2.6 0.00 0.00 0.00 11 1015.8
20260502063001 72 52 0.9 2.6 0.00 0.00 0.00 11 1015.7
20260502062003 72 35 1.7 6.1 0.00 0.00 0.00 11 1015.6
20260502061001 72 341 1.7 5.2 0.00 0.00 0.00 11 1015.5
20260502060002 72 329 0.9 3.5 0.00 0.00 0.00 11 1015.3
20260502055001 72 95 0.9 5.2 0.00 0.00 0.00 11 1015.3
20260502054001 73 39 0.9 4.3 0.00 0.00 0.00 12 1015.3
20260502053004 73 34 2.6 5.2 0.00 0.00 0.00 12 1015.2
20260502052002 73 322 2.6 5.2 0.00 0.00 0.00 11 1015.0
20260502051004 73 346 1.7 3.5 0.00 0.00 0.00 11 1015.0
20260502050001 73 355 2.6 3.5 0.00 0.00 0.00 11 1014.9
20260502045002 73 360 0.9 1.7 0.00 0.00 0.00 11 1014.8
20260502044001 73 9 0.0 2.6 0.00 0.00 0.00 11 1014.7
20260502043003 73 105 0.0 1.7 0.00 0.00 0.00 11 1014.6
20260502042002 74 108 0.9 0.9 0.00 0.00 0.00 11 1014.5
20260502041002 74 108 0.0 1.7 0.00 0.00 0.00 11 1014.3
20260502040004 75 108 0.0 2.6 0.00 0.00 0.00 11 1014.3
20260502035002 75 90 0.9 3.5 0.00 0.00 0.00 10 1014.1
20260502034001 75 360 0.0 2.6 0.00 0.00 0.00 10 1014.0
20260502033002 76 98 1.7 3.5 0.00 0.00 0.00 10 1013.9
20260502032002 76 78 0.0 1.7 0.00 0.00 0.00 10 1013.7
20260502031002 77 336 0.9 5.2 0.00 0.00 0.00 10 1013.5
20260502030002 77 69 0.9 5.2 0.00 0.00 0.00 9 1013.4
20260502025001 77 87 1.7 6.1 0.00 0.00 0.00 9 1013.3
20260502024003 78 37 3.5 9.6 0.00 0.00 0.00 9 1013.2
20260502023002 78 279 5.2 11.3 0.00 0.00 0.00 9 1013.1
20260502022002 78 309 4.3 8.7 0.00 0.00 0.00 9 1013.0
20260502021002 78 347 5.2 11.3 0.00 0.00 0.00 8 1012.9
20260502020002 79 128 2.6 7.0 0.00 0.00 0.00 9 1012.9
20260502015000 79 16 2.6 7.0 0.00 0.00 0.00 10 1012.7
20260502014000 79 349 2.6 7.0 0.00 0.00 0.00 10 1012.7
20260502013004 80 355 2.6 7.0 0.00 0.00 0.00 10 1012.7
20260502012001 80 5 1.7 7.0 0.00 0.00 0.00 10 1012.7
20260502011000 80 17 3.5 8.7 0.00 0.00 0.00 10 1012.7
20260502010000 81 319 2.6 7.0 0.00 0.00 0.00 11 1012.7
20260502005001 81 355 4.3 8.7 0.00 0.00 0.00 10 1012.7
20260502004000 81 344 2.6 8.7 0.00 0.00 0.00 10 1012.7
20260502003001 82 24 2.6 7.0 0.00 0.00 0.00 10 1012.6
20260502002001 81 22 3.5 8.7 0.00 0.00 0.00 10 1012.8
20260502001001 81 338 2.6 5.2 0.00 0.00 0.00 11 1012.8
20260502000000 81 36 1.7 8.7 0.00 0.00 0.00 11 1012.9
20260501235003 81 5 3.5 7.0 0.00 0.00 0.00 11 1013.0
20260501234000 80 24 5.2 11.3 0.00 0.00 0.00 11 1013.0
20260501233000 80 346 2.6 7.8 0.00 0.00 0.00 11 1013.0
20260501232002 80 336 3.5 7.8 0.00 0.00 0.00 11 1013.0
20260501231003 81 360 3.5 11.3 0.00 0.00 0.00 12 1013.0
20260501230002 81 88 3.5 11.3 0.00 0.00 0.00 11 1013.0
20260501225001 82 355 5.2 13.0 0.00 0.00 0.00 11 1013.1
20260501224001 83 326 1.7 10.4 0.00 0.00 0.00 11 1013.2
20260501223000 84 355 1.7 7.0 0.00 0.00 0.00 11 1013.3
20260501222001 84 144 1.7 5.2 0.00 0.00 0.00 10 1013.4
20260501221001 84 215 2.6 5.2 0.00 0.00 0.00 11 1013.6
20260501220003 83 331 2.6 9.6 0.00 0.00 0.00 11 1013.8
20260501215001 83 355 6.1 11.3 0.00 0.00 0.00 11 1014.0
20260501214000 84 5 3.5 10.4 0.00 0.00 0.00 11 1014.0
20260501213000 83 5 7.8 11.3 0.00 0.00 0.00 11 1014.1
20260501212000 83 340 1.7 7.0 0.00 0.00 0.00 11 1014.3
20260501211002 83 344 3.5 10.4 0.00 0.00 0.00 11 1014.5
20260501210000 82 260 2.6 10.4 0.00 0.00 0.00 12 1014.5
20260501205002 83 16 7.0 13.0 0.00 0.00 0.00 11 1014.6
20260501204001 82 259 2.6 8.7 0.00 0.00 0.00 11 1014.7
20260501203000 82 235 2.6 11.3 0.00 0.00 0.00 11 1014.7
20260501202003 83 72 3.5 7.8 0.00 0.00 0.00 11 1014.8
20260501201000 82 27 2.6 11.3 0.00 0.00 0.00 11 1014.9
20260501200002 82 317 4.3 10.4 0.00 0.00 0.00 11 1015.1
20260501195003 82 360 2.6 7.0 0.00 0.00 0.00 12 1015.2
20260501194001 81 5 4.3 9.6 0.00 0.00 0.00 12 1015.3
20260501193002 81 14 4.3 10.4 0.00 0.00 0.00 12 1015.4
20260501192001 80 12 4.3 12.2 0.00 0.00 0.00 12 1015.4
20260501191002 82 59 3.5 9.6 0.00 0.00 0.00 11 1015.6
20260501190003 80 30 5.2 10.4 0.00 0.00 0.00 12 1015.7
20260501185001 80 63 4.3 9.6 0.00 0.00 0.00 12 1015.8
20260501184002 81 115 4.3 9.6 0.00 0.00 0.00 12 1016.0
20260501183001 79 10 3.5 8.7 0.00 0.00 0.00 13 1016.1
20260501182002 79 341 4.3 7.8 0.00 0.00 0.00 13 1016.1
20260501181003 79 300 4.3 9.6 0.00 0.00 0.00 12 1016.2
20260501180001 77 360 3.5 11.3 0.00 0.00 0.00 12 1016.3
20260501175001 77 350 3.5 10.4 0.00 0.00 0.00 13 1016.4
20260501173959 76 5 3.5 9.6 0.00 0.00 0.00 13 1016.4
20260501173001 76 304 4.3 10.4 0.00 0.00 0.00 13 1016.4
20260501172000 75 360 3.5 12.2 0.00 0.00 0.00 13 1016.4
20260501171000 75 339 3.5 12.2 0.00 0.00 0.00 13 1016.4
20260501170000 75 295 3.5 11.3 0.00 0.00 0.00 13 1016.3
20260501165001 75 340 3.5 8.7 0.00 0.00 0.00 15 1016.4
20260501164000 74 355 4.3 9.6 0.00 0.00 0.00 16 1016.3
20260501162959 73 292 2.6 7.8 0.00 0.00 0.00 17 1016.3